User: anonymous   Login
Location: Unspecified
(0.0000°N, 0.0000°E)
Time: 19:40:39
(UTC+00:00)
Language:

N. Korean satellite - Orbit

View from above orbital plane
View from above orbital plane
View from above satellite
View from above satellite

Ground track
Ground track

The orbit data is extracted from the following two-line orbital elements,

1 39026U 12072A   23083.51752146  .00115957  00000-0  17700-2 0  9994
2 39026  97.2838  78.7280 0018424 213.8262 146.1818 15.53843228572154
Epoch (UTC): 24 March 2023 12:25:13
Eccentricity: 0.0018424
inclination: 97.2838°
perigee height: 393 km
apogee height: 418 km
right ascension of ascending node: 78.7280°
argument of perigee: 213.8262°
revolutions per day: 15.53843228
mean anomaly at epoch: 146.1818°
orbit number at epoch: 57215

The dashed part of the orbit path shows where the satellite is in the earth's shadow,  

DLR